| time (UTC) | temp F | wind direction | speed MPH | gust MPH | rain 1hr in | rain 24hr in | rain mn in | humidity % | barometer mb |
| 20260906143331 | 68 | 88 | 2.0 | 4.0 | 0.00 | 0.00 | 0.00 | 53 | 1021.4 |
| 20260906142430 | 66 | 329 | 2.0 | 3.0 | 0.00 | 0.00 | 0.00 | 54 | 1021.2 |
| 20260906141448 | 65 | 292 | 0.0 | 1.0 | 0.00 | 0.00 | 0.00 | 56 | 1020.9 |
| 20260906135530 | 62 | 180 | 1.0 | 1.0 | 0.00 | 0.00 | 0.00 | 52 | 1020.8 |
| 20260906134630 | 62 | 180 | 0.0 | 1.0 | 0.00 | 0.00 | 0.00 | 53 | 1020.8 |
| 20260906133631 | 61 | 180 | 2.0 | 3.0 | 0.00 | 0.00 | 0.00 | 57 | 1020.8 |
| 20260906133530 | 61 | 180 | 4.0 | 5.0 | 0.00 | 0.00 | 0.00 | 57 | 1020.8 |
| 20260906132629 | 61 | 202 | 2.0 | 3.0 | 0.00 | 0.00 | 0.00 | 58 | 1020.8 |
| 20260906131631 | 61 | 202 | 0.0 | 1.0 | 0.00 | 0.00 | 0.00 | 54 | 1020.6 |
| 20260906130730 | 62 | 202 | 1.0 | 3.0 | 0.00 | 0.00 | 0.00 | 52 | 1020.4 |
| 20260906125729 | 60 | 202 | 4.0 | 8.0 | 0.00 | 0.00 | 0.00 | 48 | 1020.4 |
| 20260906124731 | 61 | 225 | 0.0 | 2.0 | 0.00 | 0.00 | 0.00 | 46 | 1020.3 |
| 20260906123730 | 61 | 225 | 0.0 | 1.0 | 0.00 | 0.00 | 0.00 | 45 | 1020.3 |
| 20260906122732 | 62 | 225 | 0.0 | 0.0 | 0.00 | 0.00 | 0.00 | 45 | 1020.3 |
| 20260906121829 | 62 | 225 | 0.0 | 0.0 | 0.00 | 0.00 | 0.00 | 45 | 1020.4 |
| 20260906115834 | 64 | 225 | 0.0 | 2.0 | 0.00 | 0.00 | 0.00 | 42 | 1020.3 |
| 20260906114932 | 65 | 247 | 1.0 | 1.0 | 0.00 | 0.00 | 0.00 | 42 | 1020.4 |
| 20260906114833 | 65 | 247 | 1.0 | 2.0 | 0.00 | 0.00 | 0.00 | 42 | 1020.4 |
| 20260906112929 | 65 | 197 | 4.0 | 8.0 | 0.00 | 0.00 | 0.00 | 49 | 1020.3 |
| 20260906111948 | 65 | 202 | 1.0 | 3.0 | 0.00 | 0.00 | 0.00 | 53 | 1020.2 |
| 20260906110930 | 64 | 225 | 2.0 | 3.0 | 0.00 | 0.00 | 0.00 | 55 | 1020.4 |
| 20260906104930 | 65 | 225 | 3.0 | 3.0 | 0.00 | 0.00 | 0.00 | 57 | 1020.2 |
| 20260906103947 | 65 | 165 | 4.0 | 8.0 | 0.00 | 0.00 | 0.00 | 53 | 1020.2 |
| 20260906102932 | 66 | 225 | 0.0 | 2.0 | 0.00 | 0.00 | 0.00 | 50 | 1020.2 |
| 20260906101933 | 65 | 202 | 2.0 | 3.0 | 0.00 | 0.00 | 0.00 | 50 | 1020.2 |
| 20260906101030 | 65 | 202 | 1.0 | 3.0 | 0.00 | 0.00 | 0.00 | 52 | 1020.0 |
| 20260906100929 | 65 | 202 | 2.0 | 3.0 | 0.00 | 0.00 | 0.00 | 52 | 1020.0 |
| 20260906095930 | 65 | 225 | 2.0 | 2.0 | 0.00 | 0.00 | 0.00 | 51 | 1020.1 |
| 20260906094931 | 66 | 225 | 1.0 | 3.0 | 0.00 | 0.00 | 0.00 | 47 | 1019.9 |
| 20260906092932 | 69 | 225 | 2.0 | 2.0 | 0.00 | 0.00 | 0.00 | 37 | 1019.8 |
| 20260906091930 | 70 | 163 | 5.0 | 8.0 | 0.00 | 0.00 | 0.00 | 34 | 1019.8 |
| 20260906090932 | 71 | 177 | 5.0 | 8.0 | 0.00 | 0.00 | 0.00 | 31 | 1019.6 |
| 20260906085932 | 72 | 218 | 0.0 | 2.0 | 0.00 | 0.00 | 0.00 | 30 | 1019.6 |
| 20260906084932 | 72 | 157 | 2.0 | 4.0 | 0.00 | 0.00 | 0.00 | 29 | 1019.6 |
| 20260906084846 | 72 | 168 | 4.0 | 7.0 | 0.00 | 0.00 | 0.00 | 29 | 1019.6 |
| 20260906083931 | 71 | 156 | 5.0 | 8.0 | 0.00 | 0.00 | 0.00 | 30 | 1019.6 |
| 20260906082932 | 71 | 172 | 3.0 | 6.0 | 0.00 | 0.00 | 0.00 | 33 | 1019.7 |
| 20260906081932 | 71 | 135 | 4.0 | 7.0 | 0.00 | 0.00 | 0.00 | 36 | 1019.8 |
| 20260906080930 | 71 | 133 | 4.0 | 7.0 | 0.00 | 0.00 | 0.00 | 36 | 1019.7 |
| 20260906075933 | 70 | 132 | 6.0 | 10.0 | 0.00 | 0.00 | 0.00 | 38 | 1019.7 |
| 20260906074930 | 71 | 138 | 3.0 | 6.0 | 0.00 | 0.00 | 0.00 | 36 | 1019.7 |
| 20260906073948 | 71 | 129 | 4.0 | 8.0 | 0.00 | 0.00 | 0.00 | 35 | 1019.7 |
| 20260906072947 | 69 | 138 | 5.0 | 12.0 | 0.00 | 0.00 | 0.00 | 39 | 1019.7 |
| 20260906072029 | 70 | 225 | 1.0 | 2.0 | 0.00 | 0.00 | 0.00 | 37 | 1019.7 |
| 20260906071032 | 70 | 270 | 2.0 | 4.0 | 0.00 | 0.00 | 0.00 | 38 | 1019.8 |
| 20260906070047 | 70 | 245 | 1.0 | 3.0 | 0.00 | 0.00 | 0.00 | 39 | 1019.7 |
| 20260906065033 | 71 | 202 | 1.0 | 1.0 | 0.00 | 0.00 | 0.00 | 38 | 1019.7 |
| 20260906064130 | 72 | 247 | 0.0 | 2.0 | 0.00 | 0.00 | 0.00 | 37 | 1019.7 |
| 20260906063133 | 72 | 201 | 2.0 | 4.0 | 0.00 | 0.00 | 0.00 | 36 | 1019.6 |
| 20260906062231 | 72 | 174 | 7.0 | 11.0 | 0.00 | 0.00 | 0.00 | 39 | 1019.4 |
| 20260906061231 | 73 | 198 | 3.0 | 5.0 | 0.00 | 0.00 | 0.00 | 36 | 1019.4 |
| 20260906060248 | 73 | 175 | 6.0 | 10.0 | 0.00 | 0.00 | 0.00 | 33 | 1019.2 |
| 20260906055233 | 73 | 177 | 5.0 | 7.0 | 0.00 | 0.00 | 0.00 | 32 | 1019.2 |
| 20260906054235 | 73 | 174 | 4.0 | 6.0 | 0.00 | 0.00 | 0.00 | 35 | 1019.0 |
| 20260906053233 | 74 | 186 | 4.0 | 6.0 | 0.00 | 0.00 | 0.00 | 34 | 1019.0 |
| 20260906052232 | 75 | 166 | 5.0 | 8.0 | 0.00 | 0.00 | 0.00 | 33 | 1019.0 |
| 20260906051233 | 77 | 180 | 4.0 | 7.0 | 0.00 | 0.00 | 0.00 | 23 | 1019.0 |
| 20260906050233 | 78 | 180 | 3.0 | 5.0 | 0.00 | 0.00 | 0.00 | 18 | 1019.0 |
| 20260906045234 | 78 | 221 | 4.0 | 6.0 | 0.00 | 0.00 | 0.00 | 17 | 1018.9 |
| 20260906043349 | 78 | 222 | 3.0 | 4.0 | 0.00 | 0.00 | 0.00 | 18 | 1018.8 |
| 20260906042434 | 78 | 226 | 6.0 | 9.0 | 0.00 | 0.00 | 0.00 | 18 | 1018.6 |
| 20260906041450 | 78 | 231 | 5.0 | 8.0 | 0.00 | 0.00 | 0.00 | 17 | 1018.5 |
| 20260906040532 | 78 | 244 | 4.0 | 6.0 | 0.00 | 0.00 | 0.00 | 16 | 1018.5 |
| 20260906035534 | 78 | 234 | 6.0 | 9.0 | 0.00 | 0.00 | 0.00 | 17 | 1018.5 |
| 20260906034548 | 79 | 241 | 6.0 | 9.0 | 0.00 | 0.00 | 0.00 | 16 | 1018.3 |
| 20260906033634 | 80 | 238 | 6.0 | 9.0 | 0.00 | 0.00 | 0.00 | 16 | 1018.4 |
| 20260906032636 | 80 | 230 | 6.0 | 10.0 | 0.00 | 0.00 | 0.00 | 16 | 1018.3 |
| 20260906031649 | 79 | 236 | 8.0 | 12.0 | 0.00 | 0.00 | 0.00 | 15 | 1018.1 |
| 20260906030634 | 80 | 238 | 7.0 | 10.0 | 0.00 | 0.00 | 0.00 | 15 | 1018.0 |
| 20260906025636 | 80 | 231 | 8.0 | 12.0 | 0.00 | 0.00 | 0.00 | 16 | 1017.6 |
| 20260906023734 | 81 | 233 | 9.0 | 14.0 | 0.00 | 0.00 | 0.00 | 16 | 1017.4 |
| 20260906022735 | 81 | 223 | 7.0 | 11.0 | 0.00 | 0.00 | 0.00 | 16 | 1017.3 |
| 20260906021733 | 82 | 202 | 8.0 | 14.0 | 0.00 | 0.00 | 0.00 | 16 | 1017.2 |
| 20260906020733 | 82 | 205 | 8.0 | 14.0 | 0.00 | 0.00 | 0.00 | 15 | 1017.1 |
| 20260906015735 | 82 | 194 | 6.0 | 9.0 | 0.00 | 0.00 | 0.00 | 16 | 1017.1 |
| 20260906014834 | 83 | 227 | 7.0 | 12.0 | 0.00 | 0.00 | 0.00 | 15 | 1017.1 |
| 20260906013835 | 83 | 220 | 7.0 | 11.0 | 0.00 | 0.00 | 0.00 | 15 | 1017.0 |
| 20260906010951 | 85 | 206 | 6.0 | 8.0 | 0.00 | 0.00 | 0.00 | 15 | 1017.1 |
| 20260906005935 | 85 | 226 | 10.0 | 18.0 | 0.00 | 0.00 | 0.00 | 15 | 1017.1 |
| 20260906004933 | 86 | 213 | 5.0 | 8.0 | 0.00 | 0.00 | 0.00 | 15 | 1017.1 |
| 20260906004033 | 86 | 219 | 4.0 | 11.0 | 0.00 | 0.00 | 0.00 | 15 | 1017.3 |
| 20260906003037 | 87 | 208 | 7.0 | 12.0 | 0.00 | 0.00 | 0.00 | 15 | 1017.2 |
| 20260906002034 | 87 | 214 | 5.0 | 6.0 | 0.00 | 0.00 | 0.00 | 15 | 1017.2 |
| 20260906001034 | 88 | 199 | 3.0 | 9.0 | 0.00 | 0.00 | 0.00 | 15 | 1017.2 |
| 20260906000036 | 88 | 204 | 6.0 | 8.0 | 0.00 | 0.00 | 0.00 | 14 | 1017.1 |
| 20260905235035 | 88 | 213 | 3.0 | 6.0 | 0.00 | 0.00 | 0.00 | 15 | 1017.1 |
| 20260905234033 | 88 | 177 | 7.0 | 9.0 | 0.00 | 0.00 | 0.00 | 16 | 1017.2 |
| 20260905233035 | 87 | 292 | 2.0 | 3.0 | 0.00 | 0.00 | 0.00 | 19 | 1017.3 |
| 20260905232033 | 87 | 129 | 0.0 | 2.0 | 0.00 | 0.00 | 0.00 | 18 | 1017.5 |
| 20260905231035 | 86 | 127 | 4.0 | 6.0 | 0.00 | 0.00 | 0.00 | 16 | 1017.5 |
| 20260905230036 | 86 | 158 | 4.0 | 8.0 | 0.00 | 0.00 | 0.00 | 17 | 1017.7 |
| 20260905224053 | 86 | 169 | 8.0 | 11.0 | 0.00 | 0.00 | 0.00 | 16 | 1017.8 |
| 20260905223036 | 86 | 154 | 5.0 | 8.0 | 0.00 | 0.00 | 0.00 | 16 | 1017.8 |
| 20260905222033 | 86 | 151 | 5.0 | 9.0 | 0.00 | 0.00 | 0.00 | 18 | 1017.9 |
| 20260905221035 | 86 | 201 | 4.0 | 6.0 | 0.00 | 0.00 | 0.00 | 18 | 1018.2 |
| 20260905220035 | 85 | 133 | 5.0 | 8.0 | 0.00 | 0.00 | 0.00 | 16 | 1018.1 |
| 20260905215049 | 85 | 180 | 5.0 | 8.0 | 0.00 | 0.00 | 0.00 | 17 | 1018.4 |
| 20260905214134 | 85 | 185 | 4.0 | 6.0 | 0.00 | 0.00 | 0.00 | 17 | 1018.7 |
| 20260905213134 | 84 | 168 | 5.0 | 8.0 | 0.00 | 0.00 | 0.00 | 18 | 1018.7 |
| 20260905213050 | 84 | 165 | 6.0 | 9.0 | 0.00 | 0.00 | 0.00 | 18 | 1018.8 |
| 20260905212034 | 84 | 152 | 9.0 | 13.0 | 0.00 | 0.00 | 0.00 | 19 | 1018.7 |
| 20260905210135 | 83 | 156 | 5.0 | 10.0 | 0.00 | 0.00 | 0.00 | 19 | 1018.9 |
| 20260905205149 | 83 | 138 | 5.0 | 10.0 | 0.00 | 0.00 | 0.00 | 19 | 1019.0 |
| 20260905204234 | 83 | 152 | 7.0 | 11.0 | 0.00 | 0.00 | 0.00 | 20 | 1019.1 |
| 20260905203235 | 83 | 163 | 5.0 | 7.0 | 0.00 | 0.00 | 0.00 | 21 | 1019.2 |
| 20260905202235 | 82 | 133 | 5.0 | 9.0 | 0.00 | 0.00 | 0.00 | 23 | 1019.1 |
| 20260905201235 | 82 | 138 | 7.0 | 11.0 | 0.00 | 0.00 | 0.00 | 22 | 1019.5 |
| 20260905200236 | 81 | 124 | 7.0 | 14.0 | 0.00 | 0.00 | 0.00 | 22 | 1019.5 |
| 20260905195234 | 81 | 139 | 6.0 | 9.0 | 0.00 | 0.00 | 0.00 | 23 | 1019.4 |
| 20260905194234 | 81 | 135 | 7.0 | 14.0 | 0.00 | 0.00 | 0.00 | 23 | 1019.7 |
| 20260905193333 | 80 | 146 | 5.0 | 10.0 | 0.00 | 0.00 | 0.00 | 24 | 1019.8 |
| 20260905191333 | 80 | 107 | 6.0 | 11.0 | 0.00 | 0.00 | 0.00 | 22 | 1020.1 |
| 20260905185434 | 80 | 133 | 8.0 | 14.0 | 0.00 | 0.00 | 0.00 | 23 | 1020.4 |
| 20260905184434 | 79 | 156 | 5.0 | 8.0 | 0.00 | 0.00 | 0.00 | 23 | 1020.6 |
| 20260905183433 | 79 | 130 | 7.0 | 11.0 | 0.00 | 0.00 | 0.00 | 24 | 1020.6 |
| 20260905182450 | 78 | 141 | 6.0 | 11.0 | 0.00 | 0.00 | 0.00 | 25 | 1020.8 |
| 20260905180535 | 78 | 135 | 6.0 | 9.0 | 0.00 | 0.00 | 0.00 | 26 | 1021.0 |
| 20260905180440 | 78 | 121 | 4.0 | 10.0 | 0.00 | 0.00 | 0.00 | 26 | 1021.0 |
| 20260905175452 | 78 | 121 | 6.0 | 11.0 | 0.00 | 0.00 | 0.00 | 26 | 1021.2 |
| 20260905173549 | 77 | 155 | 6.0 | 10.0 | 0.00 | 0.00 | 0.00 | 29 | 1021.2 |
| 20260905172536 | 76 | 161 | 5.0 | 11.0 | 0.00 | 0.00 | 0.00 | 28 | 1021.3 |
| 20260905171535 | 76 | 157 | 8.0 | 11.0 | 0.00 | 0.00 | 0.00 | 27 | 1021.3 |
| 20260905170534 | 76 | 160 | 9.0 | 11.0 | 0.00 | 0.00 | 0.00 | 30 | 1021.3 |
| 20260905165533 | 75 | 143 | 4.0 | 8.0 | 0.00 | 0.00 | 0.00 | 31 | 1021.3 |
| 20260905163534 | 73 | 170 | 7.0 | 13.0 | 0.00 | 0.00 | 0.00 | 33 | 1021.4 |
| 20260905162536 | 73 | 171 | 5.0 | 11.0 | 0.00 | 0.00 | 0.00 | 36 | 1021.1 |
| 20260905161632 | 73 | 170 | 7.0 | 11.0 | 0.00 | 0.00 | 0.00 | 36 | 1021.2 |
| 20260905155635 | 72 | 166 | 7.0 | 11.0 | 0.00 | 0.00 | 0.00 | 37 | 1021.1 |
| 20260905154651 | 72 | 162 | 7.0 | 9.0 | 0.00 | 0.00 | 0.00 | 37 | 1021.2 |
| 20260905153735 | 71 | 168 | 7.0 | 10.0 | 0.00 | 0.00 | 0.00 | 37 | 1021.1 |
| 20260905152733 | 70 | 181 | 5.0 | 9.0 | 0.00 | 0.00 | 0.00 | 41 | 1021.3 |
| 20260905150734 | 70 | 179 | 3.0 | 6.0 | 0.00 | 0.00 | 0.00 | 42 | 1021.3 |
| 20260905143634 | 67 | 180 | 0.0 | 2.0 | 0.00 | 0.00 | 0.00 | 54 | 1021.3 |